SCP
2 2 2 2 2 2 2 2 1 1 1 1 1 1 1 1 1 1 1 1 1 1 1 1 1 1 1 1 1 1 1 1 1 0 0 1 1 1 1 1 0 0 0
3 3 3 2 2 2 2 2 1 1 1 1 1 1 1 1 1 1 1 1 1 1 1 1 1 1 1 1 1 1 1 1 1 1 1 1 1 1 1 1 0 0 0
3 3 3 3 2 2 2 2 2 2 1 1 1 1 1 1 1 1 1 1 1 1 1 1 1 1 1 1 1 1 1 1 1 1 1 1 1 1 1 1 1 0 0
3 3 3 3 3 2 2 2 2 2 2 2 2 2 1 1 1 1 1 1 1 1 1 1 1 1 1 1 1 1 1 1 1 1 1 1 1 1 1 1 1 0 0
3 3 3 3 3 3 2 2 2 2 2 2 2 2 1 1 1 1 1 1 1 1 1 1 1 1 1 1 1 1 1 1 1 1 1 1 1 1 1 1 1 1 0
3 4 4 4 3 3 2 2 2 2 2 2 2 2 1 1 1 1 1 1 1 1 1 1 1 1 1 1 1 1 1 1 1 1 1 1 1 1 1 1 1 1 1
4 4 4 4 3 3 2 2 2 2 2 2 2 2 1 1 1 0 1 1 1 1 1 1 1 1 1 1 1 1 1 1 1 1 1 1 1 1 1 1 1 1 1
4 4 4 3 3 2 2 2 2 2 2 2 2 2 2 1 1 0 0 1 1 1 1 1 1 1 1 1 1 1 1 1 0 0 0 0 0 1 1 1 1 1 1
3 3 3 3 2 2 2 2 2 2 2 2 2 2 2 1 1 0 0 1 1 1 1 1 1 1 1 1 1 1 1 1 0 0 0 0 0 0 0 0 0 0 0
2 2 2 2 2 2 2 2 2 2 2 2 2 2 1 1 1 0 0 1 1 1 1 1 0 0 0 0 1 1 1 1 0 0 0 0 0 0 0 0 0 0 0
2 2 2 2 2 2 2 2 2 2 2 2 2 2 1 1 1 0 0 1 1 1 1 1 0 0 0 0 0 1 1 1 0 0 0 0 0 0 0 0 1 1 1
2 2 2 2 2 2 2 2 2 2 2 2 2 2 1 1 1 1 0 0 0 1 1 1 0 0 0 0 0 0 0 0 0 0 0 0 0 0 0 0 1 1 1
2 2 2 2 2 1 2 2 2 2 2 2 2 2 1 1 1 1 0 0 0 0 0 0 0 0 0 0 0 0 0 0 0 0 0 0 0 0 0 0 1 1 1
2 1 1 1 1 1 1 1 1 1 2 1 1 1 1 1 1 1 1 0 0 0 0 0 0 0 0 0 0 0 0 0 0 0 0 0 0 0 0 0 0 0 1
1 1 1 1 1 1 1 1 1 1 1 1 1 1 1 1 1 1 1 1 0 0 0 0 0 0 0 0 0 0 0 0 0 0 0 0 0 0 0 0 0 0 0
1 1 1 1 1 1 1 1 0 0 0 0 0 0 1 1 0 0 0 0 0 0 0 0 0 0 0 0 0 0 0 0 0 0 0 0 0 0 0 0 0 0 0
1 1 1 1 1 0 0 0 0 0 0 0 0 0 0 0 0 0 0 0 0 0 0 0 0 0 0 0 0 0 0 0 0 0 0 0 0 0 0 0 0 0 0
1 1 1 0 0 0 0 0 0 0 0 0 0 0 0 0 0 0 0 0 0 0 0 0 0 0 0 0 0 0 0 0 0 0 0 0 0 0 0 0 0 0 0
1 1 0 0 0 0 0 0 0 0 0 0 0 0 0 0 0 0 0 0 0 0 0 0 0 0 0 0 0 0 0 0 0 0 0 0 0 0 0 0 0 0 0
1 0 0 0 0 0 0 0 0 0 0 0 0 0 0 0 0 0 0 0 0 0 0 0 0 0 0 0 0 0 0 0 0 0 0 0 0 0 0 0 0 0 0
0 0 0 0 0 0 0 0 0 0 0 0 0 0 0 0 0 0 0 0 0 0 0 0 0 0 0 0 0 0 0 0 0 0 0 0 0 0 0 0 0 0 0
0 0 0 0 0 0 0 0 0 0 0 0 0 0 0 0 0 0 0 0 0 0 0 0 0 0 0 0 0 0 0 0 0 0 0 0 0 0 0 0 0 0 0
0 0 0 0 0 0 0 0 0 0 0 0 0 0 0 0 0 0 0 0 0 0 0 0 0 0 0 0 0 0 0 0 0 0 0 0 0 0 0 0 0 0 0
0 0 0 0 0 0 0 0 0 0 0 0 0 0 0 0 0 0 0 0 0 0 0 0 0 0 0 0 0 0 0 0 0 0 0 0 0 0 0 0 0 0 0
0 0 0 0 0 0 0 0 0 0 0 0 0 0 0 0 0 0 0 0 0 0 0 0 0 0 0 0 0 0 0 0 0 0 0 0 0 0 0 0 0 0 0
0 0 0 0 0 0 0 0 0 0 0 0 0 0 0 0 0 0 0 0 0 0 0 0 0 0 0 0 0 0 0 0 0 0 0 0 0 0 0 0 0 0 0
Wind_Speed
10 9 8 8 8 7 6 5 4 4 3 3 4 4 4 5 4 4 5 4 4 4 4 4 4 4 3 3 3 3 3 2 3 3 2 1 1 2 2 2 3 4 4
8 7 6 6 6 7 6 5 4 4 4 4 4 4 5 5 4 5 5 4 4 4 4 4 4 4 4 4 3 4 3 3 3 4 2 2 3 3 3 4 3 4 3
8 8 7 6 6 6 5 5 4 4 4 4 4 5 4 4 4 4 4 4 4 4 3 4 4 4 4 3 4 4 3 3 2 3 3 2 2 3 3 4 4 2 4
8 8 7 7 6 5 4 4 5 5 5 5 4 4 4 4 4 4 4 4 4 3 3 4 4 4 4 4 4 4 3 3 3 3 3 3 2 2 2 2 3 2 3
7 7 7 6 5 5 4 4 4 5 6 5 4 5 4 5 4 3 3 5 4 4 4 4 4 4 4 4 4 3 3 3 3 3 3 3 3 2 2 2 3 2 3
5 6 5 5 5 5 5 4 5 4 5 5 5 5 5 5 4 4 3 3 3 4 4 4 4 5 6 5 6 5 4 4 4 4 4 3 3 3 2 3 3 3 3
5 5 5 5 5 5 5 4 4 5 5 5 5 5 5 4 4 5 5 4 4 4 4 4 5 4 4 4 4 6 6 8 7 5 5 5 4 3 2 3 4 4 5
4 4 4 4 4 4 4 4 5 5 5 5 5 5 5 5 5 5 5 5 5 5 5 5 4 3 3 3 4 4 5 5 6 6 5 5 4 3 4 5 5 5 5
3 4 4 4 4 4 5 4 4 4 4 5 5 5 5 5 7 7 6 5 4 5 5 4 4 3 4 4 4 5 5 4 4 5 6 6 7 7 5 3 4 4 4
2 3 3 3 4 5 5 4 4 4 4 5 5 5 5 5 7 9 8 5 4 4 3 4 3 3 3 3 4 4 5 4 4 4 5 7 7 7 8 6 5 5 4
1 1 2 3 4 4 4 3 3 4 4 4 4 4 5 6 7 9 9 5 4 4 3 3 2 3 3 4 5 5 6 5 5 5 5 5 4 4 5 6 6 5 5
0 1 1 2 3 3 3 3 4 4 4 4 4 4 3 4 5 8 9 8 5 4 3 2 2 3 3 5 6 7 7 6 5 5 4 4 4 4 4 4 6 6 6
1 1 2 2 2 2 4 4 4 4 4 4 3 3 3 2 3 6 6 6 6 4 3 2 3 5 5 4 6 7 6 5 4 4 4 4 3 3 3 3 4 6 7
2 2 2 3 3 3 3 3 3 3 3 2 2 2 1 1 1 2 2 3 3 3 2 3 4 6 6 5 4 4 4 4 4 4 4 3 3 3 3 3 4 3 4
2 3 3 3 3 2 2 1 1 1 1 1 1 1 1 1 1 1 2 2 2 2 2 3 3 3 3 3 3 3 2 2 3 3 3 3 3 3 3 3 3 3 4
3 3 3 2 2 2 2 1 1 0 1 1 2 2 1 2 3 2 2 3 4 4 3 4 4 3 3 3 3 2 2 2 2 2 3 3 3 3 3 3 2 3 4
3 3 2 2 1 1 1 1 1 1 0 1 2 3 4 4 4 4 3 2 3 4 3 4 3 3 3 3 2 2 2 2 2 2 3 3 3 3 3 3 3 3 3
3 3 3 2 2 2 2 2 2 2 1 1 2 4 5 5 6 5 4 2 2 4 4 4 4 3 3 2 2 2 2 2 2 2 3 3 3 3 3 3 3 3 3
3 3 2 2 2 2 1 2 2 1 1 1 1 2 4 5 5 5 4 3 4 3 3 3 3 3 2 2 2 2 2 2 2 2 3 3 3 3 3 3 3 4 4
3 3 3 2 2 1 1 1 1 2 2 2 2 2 2 2 2 3 3 3 3 2 2 2 2 2 2 2 2 2 2 2 2 2 2 2 3 3 3 4 3 3 2
3 2 3 3 2 1 1 1 1 1 2 2 1 1 2 2 2 2 2 2 2 2 2 2 2 2 2 2 1 2 2 2 2 2 2 2 2 3 2 2 3 3 2
3 3 2 2 1 0 1 1 1 1 2 2 1 1 1 2 2 2 1 1 1 1 1 2 2 1 1 1 1 1 2 2 2 2 2 2 2 3 3 2 2 2 2
3 4 3 1 1 1 1 1 1 1 1 2 1 1 1 2 1 1 1 1 1 1 1 1 1 1 0 0 0 0 1 1 2 3 3 3 2 2 2 2 3 3 3
3 3 2 1 1 1 1 1 2 1 1 1 1 1 1 1 1 1 1 1 1 1 1 1 1 0 1 1 1 1 1 2 3 2 3 4 3 3 2 3 3 3 3
3 2 2 1 1 1 1 1 1 1 1 1 1 1 1 1 1 1 1 1 2 1 1 1 0 0 1 2 2 1 1 1 2 3 3 3 3 3 3 4 3 3 3
2 2 1 0 0 1 0 0 1 1 1 1 1 1 1 1 1 1 1 1 1 1 1 0 0 0 1 2 2 2 1 1 2 3 3 3 3 3 3 3 4 3 3
Wind_Direction
191 191 195 193 200 205 208 208 204 204 205 197 199 199 204 214 213 218 234 233 240 244 246 239 241 244 250 259 255 249 242 237 249 261 257 240 215 205 188 205 200 199 197
184 184 191 188 192 201 204 201 196 199 209 205 206 209 215 217 216 219 229 232 236 241 250 253 251 247 242 248 257 259 250 237 237 251 255 248 233 208 197 217 224 215 199
180 184 190 193 193 199 200 192 194 203 210 214 214 216 219 222 222 225 226 233 236 236 243 255 254 249 250 247 246 252 259 261 239 243 255 248 239 216 205 228 234 231 230
178 185 189 193 193 196 196 190 195 202 212 217 218 219 217 220 222 221 223 227 236 240 243 247 257 255 251 255 254 253 261 271 267 256 252 248 239 225 209 227 246 230 238
172 183 185 187 186 189 195 197 202 209 220 220 220 225 220 220 220 212 234 227 223 236 239 236 238 236 245 254 259 259 259 258 262 260 254 253 244 231 228 234 250 251 244
173 182 180 181 183 187 197 205 203 210 224 226 224 227 230 228 199 198 223 242 235 235 240 239 231 231 232 234 235 240 246 249 254 259 258 255 248 243 245 253 252 256 257
173 176 178 178 181 188 203 206 212 214 218 224 225 223 220 220 214 206 220 235 243 243 241 245 252 239 222 231 232 237 243 244 241 248 261 265 261 252 253 261 259 253 252
166 173 175 174 182 187 197 208 216 217 219 222 224 225 216 215 199 201 220 235 247 246 244 241 239 237 244 252 259 255 252 247 241 236 242 256 263 259 247 248 256 258 257
177 177 173 174 185 195 201 209 217 224 227 224 221 221 214 207 199 198 207 230 238 243 247 250 236 218 229 240 255 262 262 256 255 255 246 248 253 256 253 262 260 258 263
188 180 172 179 194 208 212 215 225 225 226 226 222 219 211 214 202 197 201 226 234 233 238 241 227 212 224 226 245 258 261 266 272 266 255 254 248 245 236 226 240 249 257
215 189 188 198 209 211 213 216 223 231 231 228 226 223 217 216 201 198 200 219 239 246 244 238 215 189 209 227 238 246 250 261 266 263 257 247 242 238 233 224 226 234 244
194 215 224 221 235 225 207 220 228 230 234 231 226 229 225 208 199 199 203 212 232 250 250 234 207 206 233 247 246 246 250 256 256 257 256 254 252 247 239 231 228 230 231
203 224 253 262 250 231 225 230 228 221 229 233 226 226 217 198 179 174 193 213 230 241 260 253 244 235 243 255 249 247 241 240 246 253 255 255 255 257 260 251 241 230 234
233 246 254 249 240 247 234 225 232 231 229 237 250 253 251 200 167 166 190 216 234 241 258 272 258 248 253 259 263 248 236 239 245 254 262 264 260 253 249 254 255 249 246
260 258 256 247 236 224 242 255 231 257 239 232 274 271 263 253 226 196 208 220 233 239 248 252 250 247 241 245 249 257 259 259 259 269 280 288 285 276 266 260 255 256 250
263 261 255 247 230 214 191 176 44 224 166 191 234 246 260 230 201 192 204 218 220 212 223 241 242 237 239 244 245 245 251 259 269 274 276 282 288 288 285 285 279 275 274
273 271 262 263 245 230 221 202 189 87 100 251 233 231 223 219 224 219 218 228 237 212 225 237 242 241 236 237 240 246 248 253 265 269 271 277 281 284 282 279 278 278 277
276 266 248 237 226 237 237 239 231 216 199 243 250 228 221 220 225 225 212 196 241 223 226 234 241 246 242 245 249 252 258 254 255 265 270 275 277 277 275 274 271 275 279
273 263 243 250 244 227 231 243 254 243 227 212 217 226 224 223 227 225 205 222 242 243 238 240 244 247 246 249 259 260 259 262 264 273 276 281 281 280 279 280 275 275 272
269 264 251 249 256 245 233 240 257 259 251 237 228 212 197 210 216 207 202 228 243 259 265 260 259 260 254 246 252 258 258 259 260 264 275 286 287 285 283 282 279 275 271
272 257 230 232 240 244 253 259 267 273 266 255 257 249 203 219 228 218 206 209 227 245 259 259 249 247 247 239 246 266 275 277 284 282 278 277 285 287 285 283 287 282 273
273 265 254 245 239 221 268 279 284 287 283 274 246 174 220 261 259 233 232 240 238 244 258 266 265 254 247 251 242 242 265 283 292 289 283 277 270 267 268 273 283 286 278
264 265 262 258 221 189 230 259 267 261 280 291 277 220 209 257 270 285 286 306 309 298 293 281 283 291 352 286 308 105 294 296 300 304 296 283 282 277 271 272 271 275 274
257 260 258 256 230 226 258 276 272 256 277 296 300 292 290 289 289 317 321 323 313 313 322 310 292 319 67 64 74 67 30 338 317 301 298 286 274 268 269 269 263 256 265
254 251 251 246 255 256 269 275 293 303 306 303 305 306 314 328 319 304 300 300 293 301 320 330 317 331 92 86 81 65 38 356 324 310 288 277 271 265 264 266 263 257 256
250 257 264 260 272 300 276 266 293 289 282 282 278 273 265 259 259 266 294 308 305 307 313 344 17 76 113 131 117 113 107 12 328 304 281 268 265 265 269 269 274 269 266